Погода Аул Турара Рыскулова

Погода Аул Турара Рыскулова : погода сейчас, прогноз погоды и архив. Всё, что Вы хотите узнать о погоде Аул Турара Рыскулова!

Поиск расширенной информации на нашем сайте:

Другие новости

Новости СМИ2

Главная страница сайта

Новости сайта

02.10.2013

Напоминаем, что на нашем новом сайте вы можете получить высокодетализированные прогнозы погоды по пунктам России, СНГ и мира (включающие важные для авиации метеовеличины, такие как направление и скорость ветра, видимость, явления погоды, количество и форма облачности, нижняя и верхняя граница облачности), а также ознакомиться с разнообразными материалами по авиационной метеорологии и подборкой полезных ссылок на эту тему.

Сайт Метеоцентр.Азия посвящён разработке технологий оптимизации авиаметеорологического обслуживания, включая проектирование и перспективное создание нескольких автоматизированных авиаметеорологических систем:
- система выпуска высокодетальных прогностических карт явлений погоды для нижнего воздушного пространства по России и ближнему зарубежью;
- система верификации прогнозов TAF (выпускаемых синоптиками официальных АМСГ РФ и ближнего зарубежья) и AUTOTAF (выпускаемых сайтом Метеоцентр.Азия) - выявление ошибок, онлайн-сопоставление с фактической погодой METAR, автоматическое внесение коррективов в прогнозы при резком отклонении фактической погоды от прогноза, подсчёт оправдываемости прогнозов по элементам и в целом;
- система обработки, анализа и отображения авиаметеорологической информации для применения провайдерами метеорологической информации.


Погода Аул Турара Рыскулова - сегодня

Время (UTC), дата Ветер
(°,м/с) 
Видим.   Явления Облачность Т
(°С)
Тd
(°С)
f(%) Тe
(°С)
Pmin
(гПа)
dP
(гПа)
Po
(мм)
O2
(г/м3)
Тmin Tmax R s Состояние
почвы
18 24.06.17 тихо ()   20000 м  {гроза}  ясно 
+21 +12.5 58 +28  1008.7  0.8  690  256    +30.5       
21 24.06.17 140 (ЮВ) 20000 м    ясно 
+19 +11.3 61 +26  1008.7  -0.6  689  257           
00 25.06.17 тихо ()   20000 м    6/4 600 м кучево-дожд., верхняя 
[Cb cap|Ci sp]
+17 +11.7 71 +22  1010.6  1.2  690  259           
03 25.06.17 тихо ()   20000 м    8/3 1000 м верхняя 
[Sc|Ci sp]
+23.2 +12.7 52 +30  1009.7  1.1  691  254           
06 25.06.17 270 (З) 20000 м    8/4 1000 м верхняя 
[Sc|Ci sp]
+27.8 +14.1 43 +37  1007.3  -1  690  250  +15.7         
09 25.06.17 270 (З) 20000 м    6/6 600 м кучево-дожд. 
[Cb calv]
+30.4 +13.6 36 +39  1005.7  -0.8  690  247           
12 25.06.17 270 (З) 20000 м    5/3 600 м кучево-дожд., верхняя 
[Cb calv|Ci sp]
+29.8 +11.3 32 +35  1005.9  -0.1  690  248           
15 25.06.17 тихо ()   20000 м    1/1 1000 м 
[Cu med, cong]
+25 +14.2 51 +35  1007.3  0.1  690  252    +32       
18 25.06.17 090 (В) 20000 м    ясно 
+20.8 +11.9 57 +26  1008.4  -0.2  690  256    +32       
21 25.06.17 080 (В) 20000 м    ясно 
+19.4 +11 58 +24  1003.4  -0.5  689  257           
00 26.06.17 090 (В) 20000 м    ясно 
+18.2 +11.2 64 +24  1008.3  -0.4  689  258           
03 26.06.17 080 (В) 20000 м    ясно 
+25.8 +14 48 +35  1006.1  0.2  689  251           
06 26.06.17 050 (СВ) 20000 м    1/1 1000 м 
[Cu med, cong]
+31.6 +12.2 31 +38  1003.7  -0.6  689  246  +17.7         
09 26.06.17 230 (ЮЗ) 20000 м    5/5 600 м кучево-дожд. 
[Cb calv]
+33 +11.4 27 +38  1002.3  -0.9  688  245           
12 26.06.17 270 (З) 20000 м    8/8 600 м кучево-дожд. 
[Cb cap]
+32 +14.1 34 +41  1002.2  -0.4  688  245           
15 26.06.17 тихо ()   20000 м  в посл. час гроза  8/8 600 м кучево-дожд. 
[Cb cap]
+26 +11.4 40 +31  1005.4  1.3  689  251    +35       
18 26.06.17 090 (В) 10 км  слаб. ливневой дождь{гроза}  10/10 600 м кучево-дожд. 
[Cb cap]
+21.8 +11.9 53 +27  1010.1  3.2  691  255    +35       
21 26.06.17 тихо ()   10 км  {ливн. осадки}  10/10 600 м кучево-дожд. 
[Cb cap]
+19.4 +3.6 35 +19  1011.6  0.4  691  259           
00 27.06.17 050 (СВ) 20000 м  {ливн. осадки}  10/10 600 м кучево-дожд. 
[Cb cap]
+17.8 +14.1 79 +27  1011  -0.7  691  258           
03 27.06.17 тихо ()   20000 м  {ливн. осадки}  8/8 600 м кучево-дожд. 
[Cb cap]
+22.4 +15.9 67 +35  1011  1.4  692  254      0.0     
06 27.06.17 320 (СЗ) 20000 м  {ливн. осадки}  4/4 600 м кучево-дожд. 
[Cb cap]
+28 +13.3 40 +36  1009.4  692  250  +16.2    0.0     
09 27.06.17 180 (Ю) 20000 м    3/3 600 м кучево-дожд. 
[Cb cap]
+30.4 +14.5 38 +40  1007.5  -1  691  248           
12 27.06.17 360 (С) 20000 м  гроза без осадков  8/8 600 м кучево-дожд. 
[Cb cap]
+28 +11 35 +32  1008.1  -0.3  691  250           
15 27.06.17 050 (СВ) 20000 м  в посл. час гроза  8/8 600 м кучево-дожд. 
[Cb cap]
+22.8 +11.9 50 +28  1011.2  1.4  692  255    +31.5       
18 27.06.17 тихо ()   20000 м  {гроза, ливн. осадки}  3/3 600 м 
[Sc]
+20 +12.5 62 +27  1012.3  0.2  692  257    +31.5       
Время (UTC), дата Ветер
(°,м/с) 
Видим.   Явления Облачность Т
(°С)
Тd
(°С)
f(%) Тe
(°С)
Pmin
(гПа)
dP
(гПа)
Po
(мм)
O2
(г/м3)
Тmin Tmax R s Состояние
почвы

Для получения пояснительной информации подведите курсор к названию столбца.

ПОГОДА Аул Турара Рыскулова - архив

Всё, что Вы хотите узнать о погоде Аул Турара Рыскулова - удобно и подробно!

Выберите нужную дату (начиная с 1 января 2015* года) и нажмите кнопку "Найти".
Будут отображены архивные сводки погоды по пункту Аул Турара Рыскулова, начиная с указанной даты.


Отображать данные в формате CSV (для использования в таблицах Excel)


Внимание! Наш архив погоды предназначен исключительно для личного некоммерческого использования в познавательных целях. Если Вам необходимы официальные справки о состоянии погоды (для производственных, юридических, коммерческих и т.п. целей), обращайтесь в органы Росгидромета.

*Примечание: данная дата относится к архиву по метеостанциям СССР (Россия, СНГ, Балтия).
Архив по метеостанциям Зарубежной Европы и Азии (кроме Китая) хранится 10 дней, по другим регионам земного шара (Китай, Африка, Америка, Австралия, Океания) - 1 день.

Аул Турара Рыскулова - район местоположения метеостанции


Название, широта, долгота, высота метеостанции:
Аул Турара Рыскулова (Тюлькубас) 42.5°ш. 70.3°д. 808 м над ур. моря [Казахстан]

Дополнительная информация

В oтличие oт бoльшинства пoгoдных сайтoв мы публикуем пoдрoбную метеoинфoрмацию в детальнoм прoфессиoнальнoм фoрмате.

Характеристики температуры и влажнoсти вoздуха измеряются на высoте 2 м в тени вдали oт зданий и деревьев.
Скoрoсть ветра измеряется на высoте 10 м (на урoвне рoста челoвека скoрoсть ветра ниже в 1.5-2 раза). Если метеoстанция нахoдится в гoрoде или в лесу, тo скoрoсть ветра занижена на 2-4 м/с пo сравнению с oткрытым местoм. Скoрoсть ветра над акватoриями крупных рек и oзёр, а также на вершинах хoлмoв на 2-5 м/с выше, чем в oбычных услoвиях.
Атмoсфернoе давление в разных тoчках местнoсти мoжет значительнo oтличаться oт давления на метеoстанции, в зависимoсти oт услoвий рельефа (при пoдъёме на 10 м давление пoнижается примернo на 1 мм рт.ст.).